New Orleans Lakefront, LA

1:35 AM CST on November 17, 2019 (GMT -0600)
Lakefront

Weather History for KNEW - September, 2019

Change the Weather History Date:

Friday, September 27, 2019

  Actual Average Record
Temperature  
Mean Temperature 83 °F 77 °F  
Max Temperature 92 °F 85 °F 93 °F (1955)
Min Temperature 74 °F 69 °F 52 °F (1975)
Degree Days  
Heating Degree Days 0 0  
Month to date heating degree days 0 0  
Since 1 July heating degree days 0 0  
Cooling Degree Days 18 12  
Month to date cooling degree days 554 408  
Year to date cooling degree days 3195 2654  
Growing Degree Days 34 (Base 50)    
Moisture  
Dew Point 71 °F    
Average Humidity 67    
Maximum Humidity 87    
Minimum Humidity 47    
Precipitation  
Precipitation 0.00 in 0.12 in 1.57 in (1996)
Month to date precipitation 0.19 4.59  
Year to date precipitation 46.95 48.80  
Snow  
Snow 0.00 in - - ()
Month to date snowfall 0.0  
Since 1 July snowfall 0.0  
Since 1 September snowfall 0.0  
Snow Depth 0.00 in    
Sea Level Pressure  
Sea Level Pressure 29.93 in    
Wind  
Wind Speed 7 mph (SSE)    
Max Wind Speed 16 mph    
Max Gust Speed 22 mph    
Visibility 10 miles    
Events      
T = Trace of Precipitation, MM = Missing Value Source: NWS Daily Summary

Daily Weather History Graph

Daily Weather History Graph

Search for Another Location

Airport or City:

Astronomy

Sep. 27, 2019 Rise Set
Actual Time 6:51 AM CDT 6:50 PM CDT
Civil Twilight 6:27 AM CDT 7:14 PM CDT
Nautical Twilight 5:59 AM CDT 7:42 PM CDT
Astronomical Twilight 5:31 AM CDT 8:10 PM CDT
Moon 5:24 AM CDT (9/27) 6:32 PM CDT (9/27)
Length of Visible Light 12h 47m
Length of Day
11h 59m
Waning Crescent, 2% of the Moon is Illuminated
Sep 27
Waning Crescent
Sep 28
New
Oct 5
First Quarter
Oct 13
Full
Oct 21
Last Quarter

Hourly Weather History & Observations

Time (CDT) Temp. Heat Index Dew Point Humidity Pressure Visibility Wind Dir Wind Speed Gust Speed Precip Events Conditions
12:53 AM 78.1 °F - 70.0 °F 76% 29.91 in 10.0 mi South 5.8 mph - N/A   Clear
1:53 AM 78.1 °F - 72.0 °F 81% 29.91 in 10.0 mi SSE 4.6 mph - N/A   Clear
2:53 AM 77.0 °F - 73.0 °F 88% 29.90 in 8.0 mi South 4.6 mph - N/A   Clear
3:53 AM 78.1 °F - 73.0 °F 84% 29.90 in 8.0 mi SSE 3.5 mph - N/A   Clear
4:53 AM 78.1 °F - 73.0 °F 84% 29.92 in 7.0 mi South 3.5 mph - N/A   Clear
5:53 AM 78.1 °F - 72.0 °F 81% 29.94 in 10.0 mi Calm Calm - N/A   Clear
6:53 AM 77.0 °F - 73.0 °F 88% 29.94 in 8.0 mi SE 3.5 mph - N/A   Clear
7:53 AM 79.0 °F - 73.0 °F 82% 29.95 in 10.0 mi ESE 3.5 mph - N/A   Clear
8:53 AM 82.0 °F 86.7 °F 72.0 °F 71% 29.96 in 10.0 mi East 4.6 mph - N/A   Clear
9:53 AM 84.0 °F 89.6 °F 72.0 °F 67% 29.96 in 10.0 mi SSE 8.1 mph - N/A   Clear
10:53 AM 86.0 °F 91.5 °F 71.1 °F 61% 29.97 in 10.0 mi South 8.1 mph - N/A   Partly Cloudy
11:53 AM 88.0 °F 93.8 °F 71.1 °F 57% 29.96 in 10.0 mi SE 8.1 mph - N/A   Mostly Cloudy
12:53 PM 90.0 °F 95.4 °F 70.0 °F 52% 29.95 in 10.0 mi South 12.7 mph - N/A   Partly Cloudy
1:53 PM 90.0 °F 92.8 °F 66.9 °F 46% 29.92 in 10.0 mi SSE 10.4 mph 17.3 mph N/A   Partly Cloudy
2:53 PM 91.0 °F 94.3 °F 66.9 °F 45% 29.91 in 10.0 mi SSE 17.3 mph - N/A   Clear
3:53 PM 90.0 °F 92.8 °F 66.9 °F 46% 29.90 in 10.0 mi South 15.0 mph - N/A   Clear
4:53 PM 90.0 °F 92.8 °F 66.9 °F 46% 29.89 in 10.0 mi SSE 12.7 mph - N/A   Partly Cloudy
5:53 PM 87.1 °F 90.6 °F 68.0 °F 53% 29.89 in 10.0 mi South 15.0 mph - N/A   Clear
6:53 PM 84.9 °F 91.4 °F 73.0 °F 67% 29.90 in 10.0 mi SE 8.1 mph - N/A   Partly Cloudy
7:53 PM 82.9 °F 89.4 °F 73.9 °F 74% 29.91 in 10.0 mi SE 9.2 mph - N/A   Partly Cloudy
8:53 PM 82.0 °F 87.9 °F 73.9 °F 76% 29.93 in 10.0 mi SSE 8.1 mph - N/A   Partly Cloudy
9:53 PM 81.0 °F 86.2 °F 73.9 °F 79% 29.94 in 10.0 mi SE 5.8 mph - N/A   Partly Cloudy
10:53 PM 81.0 °F 86.2 °F 73.9 °F 79% 29.95 in 10.0 mi SE 8.1 mph - N/A   Clear
11:53 PM 80.1 °F 84.5 °F 73.9 °F 81% 29.94 in 10.0 mi SSE 5.8 mph - N/A   Clear